User: anonymous   Login
Location: Mentone
(34.5413°N, 85.5351°W)
Time: 23:17:49
(UTC-05:00)
Language:

Transit 2A Rocket - Orbit

View from above orbital plane
View from above orbital plane
View from above satellite
View from above satellite

Ground track
Ground track

The orbit data is extracted from the following two-line orbital elements,

1 00047U 60007C   16206.55593362 -.00000025  00000-0  19504-4 0  9998
2 00047  66.6664   1.6650 0236013 264.9883  92.4244 14.41841357929823
Epoch (UTC): 24 July 2016 13:20:32
Eccentricity: 0.0236013
inclination: 66.6664°
perigee height: 584 km
apogee height: 921 km
right ascension of ascending node: 1.6650°
argument of perigee: 264.9883°
revolutions per day: 14.41841357
mean anomaly at epoch: 92.4244°
orbit number at epoch: 92982

The dashed part of the orbit path shows where the satellite is in the earth's shadow,  

DLR